Погода в Джалинде

Погода в Джалинде : погода сейчас, прогноз погоды и архив. Всё, что Вы хотите узнать о погоде в Джалинде!

Поиск расширенной информации на нашем сайте:

Другие новости

Новости СМИ2

Главная страница сайта

Новости сайта

03.07.2017

Напоминаем, что на нашем специализированном сайте Метеоцентр.Азия вы можете получить высокодетализированные автоматические прогнозы погоды по пунктам России, СНГ и мира в авиационном формате (включающие направление и скорость ветра, видимость, явления погоды, количество и форму облачности, нижнюю и верхнюю границу облачности).


Погода в Джалинде - сегодня

Время (UTC), дата Ветер
(°,м/с) 
Видим.   Явления Облачность Т
(°С)
Тd
(°С)
f(%) Тe
(°С)
Pmin
(гПа)
dP
(гПа)
Po
(мм)
O2
(г/м3)
Тmin Tmax R s Состояние
почвы
06 18.02.18 300 (СЗ) 20000 м  позёмок  8/0 верхняя 
[Cc]
-11.8 -23.1 39 -17  1020.7  -1.5  740  313           
15 18.02.18 360 (С) 20000 м    ясно 
-27.7 -30.8 75 -28  1024.2  -0.2  740  334           
18 18.02.18 320 (СЗ) 20000 м    ясно 
-29.8 -33 74 -31  1024.7  0.1  740  337           
21 18.02.18 340 (С) 20000 м    ясно 
-30.4 -33.6 73 -31  1024.6  -0.2  740  338           
03 19.02.18 330 (СЗ) 20000 м    8/0 верхняя 
[Ci]
-16 -27.8 36 -21  1021.5  -1  740  318           
09 19.02.18 330 (СЗ) 5{11}  20000 м    3/0 верхняя 
[Ci]
-15.9 -27.9 35 -22  1021.6  740  318           
12 19.02.18 340 (С) 20000 м    ясно 
-23.2 -28.9 59 -24  1023.6  740  328    -13.5       
15 19.02.18 010 (С) 20000 м    ясно 
-26.8 -30.8 69 -30  1023.7  -0.5  740  332           
18 19.02.18 300 (СЗ) 20000 м    ясно 
-30 -32.9 76 -31  1024.2  740  337           
21 19.02.18 340 (С) 20000 м    ясно 
-32.9 -36.3 72 -34  1024.6  740  341           
03 20.02.18 330 (СЗ) 20000 м    3/0 верхняя 
[Ci]
-17.4 -26.6 45 -21  1021.9  -0.7  740  320           
06 20.02.18 300 (СЗ) 20000 м    1/0 верхняя 
[Ci]
-12.4 -24.5 36 -17  1018.9  -2.2  738  313           
09 20.02.18 330 (СЗ) 20000 м    10/0 верхняя 
[Ci]
-15.1 -26.1 39 -17  1019  -0.2  738  316           
15 20.02.18 340 (С) 20000 м    4/0 верхняя 
[Cs]
-28.8 -32 74 -29  1020.2  -0.6  737  334           
18 20.02.18 340 (С) 20000 м    3/0 верхняя 
[Ci]
-29.5 -32.5 75 -35  1019.7  -0.5  737  335           
21 20.02.18 310 (СЗ) 20000 м    ясно 
-33.2 -36.8 70 -37  1019.9  -0.4  737  340           
00 21.02.18 300 (СЗ) 10 км    10/0 верхняя 
[Ci]
-32.4 -36 70 -38  1019.8  -0.1  737  339  -33.3      15  равномерный
сухой снег
100% 
03 21.02.18 300 (СЗ) 20000 м    10/0 верхняя 
[Cs]
-22 -28 58 -27  1017.3  -0.8  736  324           
06 21.02.18 300 (СЗ) 20000 м    5/0 верхняя 
[Ci]
-12.6 -24.8 35 -16  1013.9  -2  734  312           
09 21.02.18 340 (С) 20000 м    3/0 верхняя 
[Ci]
-14.5 -26.2 36 -17  1015  0.8  735  314           
15 21.02.18 350 (С) 20000 м    ясно 
-29.5 -32.5 75 -33  1018.9  0.4  736  335           
18 21.02.18 300 (СЗ) 20000 м    ясно 
-31.6 -34.8 73 -35  1019.7  0.4  737  338           
21 21.02.18 320 (СЗ) 20000 м    ясно 
-33.5 -37 71 -34  1020.5  0.5  737  340           
00 22.02.18 300 (СЗ) 20000 м    5/0 верхняя 
[Ci fib]
-33 -36.6 70 -39  1021.2  0.7  738  340  -34.3      14  равномерный
сухой снег
100% 
03 22.02.18 340 (С) 20000 м    3/0 верхняя 
[Ci fib]
-19.6 -26.4 55 -22  1018.5  -0.6  737  322           
Время (UTC), дата Ветер
(°,м/с) 
Видим.   Явления Облачность Т
(°С)
Тd
(°С)
f(%) Тe
(°С)
Pmin
(гПа)
dP
(гПа)
Po
(мм)
O2
(г/м3)
Тmin Tmax R s Состояние
почвы

Для получения пояснительной информации подведите курсор к названию столбца.

ПОГОДА в Джалинде - архив

Всё, что Вы хотите узнать о погоде в Джалинде - удобно и подробно!

Выберите нужную дату (начиная с 1 января 2015* года) и нажмите кнопку "Найти".
Будут отображены архивные сводки погоды по пункту Джалинда, начиная с указанной даты.


Отображать данные в формате CSV (для использования в таблицах Excel)


Внимание! Наш архив погоды предназначен исключительно для личного некоммерческого использования в познавательных целях. Если Вам необходимы официальные справки о состоянии погоды (для производственных, юридических, коммерческих и т.п. целей), обращайтесь в органы Росгидромета.

*Примечание: данная дата относится к архиву по метеостанциям СССР (Россия, СНГ, Балтия).
Архив по метеостанциям Зарубежной Европы и Азии (кроме Китая) хранится 10 дней, по другим регионам земного шара (Китай, Африка, Америка, Австралия, Океания) - 1 день.

Джалинда - район местоположения метеостанции


Название, широта, долгота, высота метеостанции:
Джалинда 53.5°ш. 123.9°д. 266 м над ур. моря [Российская Федерация]

Дополнительная информация

В oтличие oт бoльшинства пoгoдных сайтoв мы публикуем пoдрoбную метеoинфoрмацию в детальнoм прoфессиoнальнoм фoрмате.

Характеристики температуры и влажнoсти вoздуха измеряются на высoте 2 м в тени вдали oт зданий и деревьев.
Скoрoсть ветра измеряется на высoте 10 м (на урoвне рoста челoвека скoрoсть ветра ниже в 1.5-2 раза). Если метеoстанция нахoдится в гoрoде или в лесу, тo скoрoсть ветра занижена на 2-4 м/с пo сравнению с oткрытым местoм. Скoрoсть ветра над акватoриями крупных рек и oзёр, а также на вершинах хoлмoв на 2-5 м/с выше, чем в oбычных услoвиях.
Атмoсфернoе давление в разных тoчках местнoсти мoжет значительнo oтличаться oт давления на метеoстанции, в зависимoсти oт услoвий рельефа (при пoдъёме на 10 м давление пoнижается примернo на 1 мм рт.ст.).